• In Uzbekistan
  • List of Countries
  • For 7 days
  • Water Temperature
  • Satellite Maps
  • Weather Map
  • Weather Widgets
  • user-avatar
    Login

    Hourly Weather Tirana

    Today, 4 December, Sunday

    Time Temperature Precipitation Wind Pressure Humidity
    00:00 +7°C° 0 mm 3 mps 759 mmHg 80%
    01:00 +7°C° 0 mm 3 mps 759 mmHg 80%
    02:00 +7°C° 0 mm 3 mps 759 mmHg 81%
    03:00 +5°C° 0 mm 3 mps 759 mmHg 81%
    04:00 +5°C° 0 mm 3 mps 759 mmHg 82%
    05:00 +5°C° 0 mm 3 mps 760 mmHg 81%
    06:00 +5°C° 0 mm 3 mps 760 mmHg 81%
    07:00 +5°C° 0 mm 3 mps 760 mmHg 80%
    08:00 +8°C° 0 mm 3 mps 760 mmHg 74%
    09:00 +10°C° 0 mm 3 mps 760 mmHg 68%
    10:00 +11°C° 0 mm 3 mps 760 mmHg 62%
    11:00 +12°C° 0 mm 3 mps 760 mmHg 60%
    12:00 +13°C° 0 mm 3 mps 760 mmHg 58%
    13:00 +15°C° 0 mm 2 mps 760 mmHg 56%
    14:00 +13°C° 0 mm 2 mps 760 mmHg 61%
    15:00 +12°C° 0 mm 2 mps 760 mmHg 66%
    16:00 +10°C° 0 mm 2 mps 760 mmHg 71%
    17:00 +9°C° 0 mm 3 mps 760 mmHg 73%
    18:00 +8°C° 0 mm 3 mps 761 mmHg 74%
    19:00 +8°C° 0 mm 3 mps 761 mmHg 76%
    20:00 +7°C° 0 mm 3 mps 761 mmHg 76%
    21:00 +7°C° 0 mm 3 mps 761 mmHg 76%
    22:00 +7°C° 0 mm 3 mps 762 mmHg 76%
    23:00 +7°C° 0 mm 3 mps 762 mmHg 76%

    Tomorrow, 5 December, Monday

    Time Temperature Precipitation Wind Pressure Humidity
    00:00 +7°C° 0 mm 3 mps 762 mmHg 76%
    01:00 +5°C° 0 mm 3 mps 762 mmHg 76%
    02:00 +5°C° 0 mm 3 mps 762 mmHg 76%
    03:00 +5°C° 0 mm 3 mps 762 mmHg 76%
    04:00 +5°C° 0 mm 3 mps 762 mmHg 76%
    05:00 +5°C° 0 mm 3 mps 762 mmHg 76%
    06:00 +5°C° 0 mm 3 mps 763 mmHg 75%
    07:00 +5°C° 0 mm 3 mps 763 mmHg 75%
    08:00 +8°C° 0 mm 3 mps 763 mmHg 70%
    09:00 +10°C° 0 mm 3 mps 763 mmHg 64%
    10:00 +11°C° 0 mm 3 mps 763 mmHg 59%
    11:00 +12°C° 0 mm 3 mps 763 mmHg 56%
    12:00 +14°C° 0 mm 2 mps 763 mmHg 53%
    13:00 +15°C° 0 mm 2 mps 763 mmHg 51%
    14:00 +14°C° 0 mm 2 mps 763 mmHg 57%
    15:00 +12°C° 0 mm 1 mps 763 mmHg 62%
    16:00 +11°C° 0 mm 1 mps 763 mmHg 68%
    17:00 +10°C° 0 mm 1 mps 763 mmHg 69%
    18:00 +9°C° 0 mm 2 mps 763 mmHg 71%
    19:00 +9°C° 0 mm 2 mps 763 mmHg 72%
    20:00 +8°C° 0 mm 2 mps 763 mmHg 72%
    21:00 +8°C° 0 mm 2 mps 764 mmHg 73%
    22:00 +8°C° 0 mm 3 mps 764 mmHg 74%
    23:00 +8°C° 0 mm 3 mps 763 mmHg 74%

    Day after tomorrow, 6 December, Tuesday

    Time Temperature Precipitation Wind Pressure Humidity
    00:00 +8°C° 0 mm 3 mps 763 mmHg 74%
    01:00 +8°C° 0 mm 3 mps 763 mmHg 74%
    02:00 +8°C° 0.2 mm 3 mps 763 mmHg 74%
    03:00 +8°C° 0.2 mm 3 mps 762 mmHg 74%
    04:00 +8°C° 0.2 mm 3 mps 762 mmHg 74%
    05:00 +8°C° 0.3 mm 3 mps 762 mmHg 76%
    06:00 +8°C° 0.3 mm 3 mps 762 mmHg 77%
    07:00 +8°C° 0.3 mm 3 mps 762 mmHg 78%
    08:00 +10°C° 0 mm 3 mps 762 mmHg 75%
    09:00 +12°C° 0 mm 2 mps 762 mmHg 71%
    10:00 +13°C° 0 mm 2 mps 762 mmHg 67%
    11:00 +14°C° 0 mm 2 mps 762 mmHg 66%
    12:00 +15°C° 0 mm 2 mps 762 mmHg 65%
    13:00 +15°C° 0 mm 1 mps 761 mmHg 64%
    14:00 +14°C° 0 mm 1 mps 761 mmHg 71%
    15:00 +12°C° 0 mm 2 mps 761 mmHg 78%
    16:00 +10°C° 0 mm 2 mps 761 mmHg 84%
    17:00 +9°C° 0 mm 2 mps 761 mmHg 85%
    18:00 +9°C° 0 mm 2 mps 761 mmHg 85%
    19:00 +8°C° 0 mm 2 mps 761 mmHg 85%
    20:00 +8°C° 0 mm 2 mps 762 mmHg 86%
    21:00 +8°C° 0 mm 2 mps 762 mmHg 86%
    22:00 +8°C° 0 mm 2 mps 762 mmHg 87%
    23:00 +8°C° 0 mm 2 mps 762 mmHg 86%

    7 December, Wednesday

    Time Temperature Precipitation Wind Pressure Humidity
    00:00 +8°C° 0 mm 2 mps 762 mmHg 86%
    01:00 +8°C° 0 mm 2 mps 762 mmHg 86%
    02:00 +8°C° 0 mm 2 mps 762 mmHg 85%
    03:00 +8°C° 0 mm 3 mps 762 mmHg 84%
    04:00 +8°C° 0 mm 3 mps 762 mmHg 83%
    05:00 +7°C° 0 mm 3 mps 762 mmHg 82%
    06:00 +7°C° 0 mm 3 mps 762 mmHg 82%
    07:00 +7°C° 0 mm 3 mps 762 mmHg 81%
    08:00 +9°C° 0 mm 3 mps 763 mmHg 75%
    09:00 +10°C° 0 mm 4 mps 763 mmHg 68%
    10:00 +12°C° 0 mm 4 mps 763 mmHg 62%
    11:00 +13°C° 0 mm 4 mps 763 mmHg 59%
    12:00 +13°C° 0 mm 4 mps 762 mmHg 55%
    13:00 +14°C° 0 mm 4 mps 762 mmHg 52%
    14:00 +13°C° 0 mm 4 mps 762 mmHg 56%
    15:00 +11°C° 0 mm 4 mps 763 mmHg 61%
    16:00 +9°C° 0 mm 5 mps 763 mmHg 65%
    17:00 +8°C° 0 mm 5 mps 763 mmHg 66%
    18:00 +7°C° 0 mm 5 mps 764 mmHg 66%
    19:00 +6°C° 0 mm 5 mps 764 mmHg 67%
    20:00 +6°C° 0 mm 5 mps 765 mmHg 67%
    21:00 +5°C° 0 mm 5 mps 765 mmHg 66%
    22:00 +5°C° 0 mm 5 mps 766 mmHg 65%
    23:00 +5°C° 0 mm 5 mps 766 mmHg 65%

    8 December, Thursday

    Time Temperature Precipitation Wind Pressure Humidity
    00:00 +5°C° 0 mm 5 mps 766 mmHg 64%
    01:00 +4°C° 0 mm 4 mps 766 mmHg 64%
    02:00 +4°C° 0 mm 4 mps 766 mmHg 63%
    03:00 +4°C° 0 mm 4 mps 766 mmHg 63%
    04:00 +4°C° 0 mm 4 mps 766 mmHg 63%
    05:00 +4°C° 0 mm 4 mps 767 mmHg 62%
    06:00 +4°C° 0 mm 3 mps 767 mmHg 62%
    07:00 +4°C° 0 mm 3 mps 767 mmHg 61%
    08:00 +5°C° 0 mm 3 mps 767 mmHg 57%
    09:00 +8°C° 0 mm 3 mps 767 mmHg 53%
    10:00 +10°C° 0 mm 2 mps 767 mmHg 48%
    11:00 +12°C° 0 mm 2 mps 767 mmHg 46%
    12:00 +13°C° 0 mm 2 mps 767 mmHg 45%
    13:00 +14°C° 0 mm 1 mps 766 mmHg 43%
    14:00 +12°C° 0 mm 2 mps 766 mmHg 52%
    15:00 +9°C° 0 mm 2 mps 766 mmHg 60%
    16:00 +7°C° 0 mm 2 mps 766 mmHg 69%
    17:00 +7°C° 0 mm 2 mps 766 mmHg 70%
    18:00 +6°C° 0 mm 2 mps 766 mmHg 71%
    19:00 +6°C° 0 mm 2 mps 766 mmHg 72%
    20:00 +5°C° 0 mm 2 mps 766 mmHg 73%
    21:00 +5°C° 0 mm 2 mps 767 mmHg 74%
    22:00 +6°C° 0 mm 1 mps 767 mmHg 75%
    23:00 +6°C° 0 mm 1 mps 767 mmHg 74%

    9 December, Friday

    Time Temperature Precipitation Wind Pressure Humidity
    00:00 +6°C° 0 mm 1 mps 766 mmHg 72%
    01:00 +5°C° 0 mm 1 mps 766 mmHg 71%
    02:00 +5°C° 0 mm 1 mps 766 mmHg 68%
    03:00 +5°C° 0 mm 1 mps 766 mmHg 65%
    04:00 +5°C° 0 mm 1 mps 765 mmHg 62%
    05:00 +5°C° 0 mm 1 mps 765 mmHg 61%
    06:00 +5°C° 0 mm 1 mps 765 mmHg 59%
    07:00 +4°C° 0 mm 1 mps 765 mmHg 58%
    08:00 +7°C° 0 mm 1 mps 765 mmHg 50%
    09:00 +10°C° 0 mm 1 mps 765 mmHg 43%
    10:00 +12°C° 0 mm 1 mps 765 mmHg 35%
    11:00 +13°C° 0 mm 1 mps 764 mmHg 37%
    12:00 +13°C° 0 mm 1 mps 764 mmHg 39%
    13:00 +14°C° 0 mm 2 mps 763 mmHg 41%
    14:00 +12°C° 0 mm 2 mps 763 mmHg 51%
    15:00 +9°C° 0 mm 2 mps 763 mmHg 62%
    16:00 +6°C° 0 mm 2 mps 763 mmHg 73%
    17:00 +6°C° 0 mm 2 mps 763 mmHg 73%
    18:00 +6°C° 0 mm 1 mps 763 mmHg 72%
    19:00 +6°C° 0 mm 1 mps 763 mmHg 72%
    20:00 +6°C° 0 mm 1 mps 762 mmHg 71%
    21:00 +6°C° 0 mm 1 mps 762 mmHg 69%
    22:00 +6°C° 0 mm 1 mps 762 mmHg 68%
    23:00 +6°C° 0 mm 1 mps 762 mmHg 69%
    Show more